Home   Weather   Kolkata   Past weeks

Flag for India Past Weather in Kolkata, West Bengal, India — Yesterday and Last 2 Weeks

79 °F


Feels Like: 82 °F
Forecast: 76 / 87 °F
Wind: No wind

Location: Calcutta / Dum Dum

Current Time: Oct 28, 2016 at 4:19:33 AM

Latest Report: Oct 28, 2016 at 3:30 AM

Visibility: 1 mi

Pressure: 29.83 "Hg

Humidity: 89%

Dew Point: 75 °F

Location of KolkataLocation

Past Weather in Kolkata — Graph


Kolkata Temperature Yesterday

Maximum temperature yesterday: 86 °F (at 1:00 PM)
Minimum temperature yesterday: 75 °F (at 4:00 AM)
Average temperature yesterday: 80 °F

High & Low Weather Summary for the Past Weeks

High93 °F (Oct 17, 2:00 PM)94% (Oct 13, 2:30 AM)29.95 "Hg (Oct 13, 2:30 AM)
Low75 °F (Oct 13, 5:30 AM)36% (Oct 14, 1:30 PM)29.62 "Hg (Oct 20, 2:30 PM)
Average83 °F69%29.75 "Hg
* Reported Oct 13 2:30 AM — Oct 28 3:00 AM, Kolkata, Weather by CustomWeather, © 2016

Note: Actual official high and low records may vary slightly from our data, if they occured in-between our weather recording intervals... More about our weather records


Kolkata Weather History for the Previous 24 Hours

Scroll right to see more
Time TempWeatherWind HumidityBarometerVisibility
3:00 AM
Fri, Oct 28
79 °FFog.No wind89%29.83 "Hg1 mi
2:30 AM79 °FFog.No wind89%29.83 "Hg1 mi
2:00 AM79 °FFog.No wind89%29.83 "Hg1 mi
1:30 AM79 °FFog.No wind89%29.83 "Hg1 mi
1:00 AM79 °FFog.3 mph89%29.86 "Hg1 mi
12:30 AM79 °FFog.No wind89%29.86 "Hg1 mi
12:00 AM79 °FPassing clouds.No wind89%29.86 "Hg2 mi
11:30 PM
Thu, Oct 27
79 °FPassing clouds.5 mph89%29.86 "Hg2 mi
11:00 PM81 °FPassing clouds.3 mph84%29.86 "Hg2 mi
10:30 PM81 °FPassing clouds.No wind84%29.86 "Hg2 mi
10:00 PM81 °FPassing clouds.3 mph84%29.89 "Hg2 mi
9:30 PM81 °FPassing clouds.3 mph84%29.89 "Hg2 mi
9:00 PM81 °FPassing clouds.3 mph84%29.89 "Hg2 mi
8:30 PM81 °FPassing clouds.5 mph84%29.89 "Hg2 mi
8:00 PM81 °FPassing clouds.5 mph89%29.89 "Hg2 mi
7:30 PM81 °FPassing clouds.No wind89%29.89 "Hg2 mi
7:00 PM82 °FPassing clouds.5 mph84%29.86 "Hg2 mi
6:30 PM82 °FPassing clouds.5 mph84%29.83 "Hg2 mi
6:00 PM82 °FPassing clouds.3 mph84%29.83 "Hg2 mi
5:30 PM82 °FScattered clouds.5 mph89%29.83 "Hg2 mi
5:00 PM82 °FBroken clouds.6 mph89%29.83 "Hg2 mi
4:30 PM82 °FBroken clouds.6 mph89%29.83 "Hg2 mi
4:00 PM84 °FBroken clouds.5 mph84%29.83 "Hg2 mi
3:30 PM84 °FLight rain. Broken clouds.7 mph84%29.83 "Hg2 mi
3:00 PM84 °FLight rain. Broken clouds.8 mph84%29.80 "Hg2 mi
2:30 PM84 °FBroken clouds.8 mph79%29.80 "Hg2 mi
2:00 PM86 °FBroken clouds.6 mph75%29.83 "Hg2 mi
1:30 PM86 °FBroken clouds.5 mph75%29.83 "Hg2 mi
1:00 PM86 °FBroken clouds.5 mph75%29.86 "Hg2 mi
12:30 PM84 °FBroken clouds.3 mph79%29.86 "Hg2 mi
12:00 PM84 °FBroken clouds.6 mph79%29.89 "Hg2 mi
11:30 AM84 °FBroken clouds.5 mph79%29.89 "Hg2 mi
11:00 AM84 °FScattered clouds.5 mph79%29.92 "Hg2 mi
10:30 AM81 °FScattered clouds.5 mph84%29.92 "Hg2 mi
10:00 AM79 °FBroken clouds.3 mph89%29.92 "Hg2 mi
9:30 AM79 °FBroken clouds.6 mph89%29.95 "Hg2 mi
9:00 AM79 °FBroken clouds.5 mph89%29.92 "Hg2 mi
8:30 AM77 °FBroken clouds.6 mph94%29.92 "Hg2 mi
8:00 AM77 °FLight rain. Broken clouds.6 mph94%29.92 "Hg2 mi
7:30 AM77 °FLight rain. Broken clouds.6 mph94%29.92 "Hg2 mi
7:00 AM75 °FLight rain. Broken clouds.5 mph94%29.89 "Hg2 mi
6:30 AM75 °FThunderstorms. More clouds than sun.5 mph94%29.89 "Hg2 mi
6:00 AM75 °FThunderstorms. Mostly cloudy.8 mph94%29.86 "Hg1 mi
5:30 AM75 °FThunderstorms. Mostly cloudy.6 mph94%29.86 "Hg1 mi
5:00 AM75 °FThunderstorms. Mostly cloudy.6 mph94%29.83 "Hg1 mi
4:00 AM75 °FThunderstorms. Mostly cloudy.5 mph94%29.83 "Hg1 mi
Weather by CustomWeather, © 2016

See weather overviewHow to use our weather pages